Regional Weather Roundup
Issued by NWS

Home | Current Version | Previous Version | Text Only | Print | Product List | Glossary Off
Versions: 1 2 3 4 5 6 7 8 9 10 11 12 13 14 15 16 17 18 19 20 21 22 23 24 25 26 27 28 29 30 31 32 33 34 35 36 37 38 39 40 41 42 43 44 45 46 47 48 49 50

000
ASUS43 KOAX 310810
RWRNE

WEATHER ROUNDUP FOR NEBRASKA
NATIONAL WEATHER SERVICE OMAHA NE
300 AM CDT WED AUG 31 2016

NOTES: SATELLITE DATA IS BEING USED TO AUGMENT CLOUD COVER ABOVE
       12000 FEET.
       "FAIR" INDICATES FEW OR NO CLOUDS BELOW 12,000 FEET WITH NO
       SIGNIFICANT WEATHER AND/OR OBSTRUCTIONS TO VISIBILITY.

  * THESE STATIONS DO NOT REPORT WEATHER SUCH AS RAIN...SNOW OR FOG.

NEZ001>004-019>022-054>056-310900-
NEBRASKA PANHANDLE

CITY           SKY/WX    TMP DP  RH WIND       PRES   REMARKS
SCOTTSBLUFF    CLEAR     58  55  90 E6        30.26F
ALLIANCE       FOG       56  56 100 CALM      30.26F VSB 1/2
CHADRON        CLEAR     61  54  77 CALM      30.22F
KIMBALL        PTCLDY    53  53 100 CALM      30.31S
SIDNEY         MOCLDY    62  60  93 CALM      30.29F
$$

NEZ057>060-069>072-079>082-310900-
SOUTHWEST NEBRASKA

CITY           SKY/WX    TMP DP  RH WIND       PRES   REMARKS
NORTH PLATTE   CLOUDY    63  61  93 E5        30.24R FOG
IMPERIAL       CLOUDY    66  64  93 SE7       30.24F
LEXINGTON      FOG       64  62  95 N3        30.22R VSB 1/2
MCCOOK         LGT RAIN  67  63  87 E7        30.22S
OGALLALA       PTCLDY    62  61  95 NE3       30.26R
$$

NEZ005>010-023>029-035>040-094-310900-
NORTH CENTRAL NEBRASKA

CITY           SKY/WX    TMP DP  RH WIND       PRES   REMARKS
VALENTINE      CLEAR     64  60  87 SW3       30.23S
AINSWORTH      CLEAR     60  60 100 CALM      30.24S FOG
BROKEN BOW     FOG       61  61 100 N6        30.22S VSB 1/4
O`NEILL        FOG       64  63  95 CALM      30.22F VSB 1/4
ORD            FOG       62  61  96 CALM      30.21R VSB 1/4
THEDFORD       PTCLDY    60  59  98 CALM      30.26S FOG
$$

NEZ041-046>049-061>064-073>077-083>087-310900-
SOUTH CENTRAL NEBRASKA

CITY           SKY/WX    TMP DP  RH WIND       PRES   REMARKS
GRAND ISLAND   FOG       66  65  96 N6        30.20S VSB 1/2
AURORA         MOCLDY    67  67 100 CALM      30.18F FOG
HASTINGS       CLOUDY    67  66  97 E3        30.19F FOG
HEBRON         CLOUDY    69  68  98 CALM      30.16F FOG
HOLDREGE       CLOUDY    67  65  96 CALM      30.21S FOG
KEARNEY *      CLOUDY    66  64  94 CALM      30.19F VSB 1/4
YORK           MOCLDY    66  66 100 CALM      30.18S FOG
$$

NEZ011>018-030>034-042>045-310900-
NORTHEAST NEBRASKA

CITY           SKY/WX    TMP DP  RH WIND       PRES   REMARKS
NORFOLK        FOG       64  63  96 CALM      30.19S VSB 1/4
ALBION           N/A     63  61  93 CALM      30.20S
BLAIR          CLOUDY    70  69  96 NE5       30.17S
FREMONT        CLOUDY    69  68  98 CALM      30.17F
TEKAMAH        MOCLDY    67  66  97 N7        30.17S FOG
WAYNE          FOG       66  65  99 CALM      30.21R VSB 1/4
$$

NEZ050>053-065>068-078-088>093-310900-
SOUTHEAST NEBRASKA

CITY           SKY/WX    TMP DP  RH WIND       PRES   REMARKS
LINCOLN        CLOUDY    70  68  93 N3        30.17F
OMAHA EPPLEY   CLOUDY    72  68  87 NW3       30.16S
BEATRICE       CLOUDY    69  69  99 NE5       30.15F FOG
FALLS CITY     CLOUDY    72  70  93 N3        30.13F
NEBRASKA CITY  CLOUDY    70  70 100 NE5       30.16R
PLATTSMOUTH    CLOUDY    71  70  98 CALM      30.16S
$$

NEZ044-045-051>053-067-310900-
OMAHA AREA

CITY           SKY/WX    TMP DP  RH WIND       PRES   REMARKS
OMAHA EPPLEY   CLOUDY    72  68  87 NW3       30.16S
BLAIR          CLOUDY    70  69  96 NE5       30.17S
FREMONT        CLOUDY    69  68  98 CALM      30.17F
MILLARD        CLOUDY   N/A N/A N/A CALM      30.16S
OFFUTT AFB     MOCLDY    72  72 100 NE5       30.15S
PLATTSMOUTH    CLOUDY    71  70  98 CALM      30.16S
WAHOO          PTSUNNY   68  67  96 N3        30.16F FOG
$$




USA.gov is the U.S. government's official web portal to all federal, state and local government web resources and services.